Grand Marais, MN

10:13 AM CDT on April 25, 2018 (GMT -0500)
Grand Marais

Weather History for KGNA - February, 2013

Change the Weather History Date:

Monday, February 25, 2013

  Actual Average (KCKC) Record (KCKC)
Temperature  
Mean Temperature 28 °F -  
Max Temperature 36 °F 22 °F 42 °F (1998)
Min Temperature 19 °F 7 °F -18 °F (2003)
Degree Days  
Heating Degree Days 38    
Moisture  
Dew Point 22 °F    
Average Humidity 79    
Maximum Humidity 89    
Minimum Humidity 67    
Precipitation  
Precipitation 0.00 in - - ()
Sea Level Pressure  
Sea Level Pressure 30.10 in    
Wind  
Wind Speed 4 mph (WNW)    
Max Wind Speed 10 mph    
Max Gust Speed -    
Averages and records for this station are not official NWS values.
T = Trace of Precipitation, MM = Missing Value Source: NWS Daily Summary

Daily Weather History Graph

Daily Weather History Graph

Search for Another Location

Airport or City:

Astronomy

Feb. 25, 2013 Rise Set
Actual Time 6:49 AM CST 5:40 PM CST
Civil Twilight 6:17 AM CST 6:11 PM CST
Nautical Twilight 5:42 AM CST 6:47 PM CST
Astronomical Twilight 5:06 AM CST 7:23 PM CST
Moon 5:58 PM CST 6:16 AM CST
Length of Visible Light 11h 53m
Length of Day
10h 51m
Full, 100% of the Moon is Illuminated
Feb 25
Full
Feb 25
Full
Mar 4
Last Quarter
Mar 11
New
Mar 19
First Quarter

Hourly Weather History & Observations

Time (CST) Temp. Windchill Dew Point Humidity Pressure Visibility Wind Dir Wind Speed Gust Speed Precip Events Conditions
12:56 AM 25.0 °F 19.3 °F 21.0 °F 85% 30.10 in - NNW 4.6 mph - N/A   Unknown
1:56 AM 23.0 °F 17.0 °F 19.9 °F 88% 30.11 in - NNW 4.6 mph - N/A   Unknown
2:56 AM 23.0 °F 17.0 °F 19.0 °F 85% 30.10 in - NNW 4.6 mph - N/A   Unknown
3:56 AM 21.0 °F - 17.1 °F 85% 30.10 in - Calm Calm - N/A   Unknown
4:56 AM 19.0 °F 13.9 °F 15.1 °F 85% 30.11 in - NNW 3.5 mph - N/A   Unknown
5:56 AM 19.9 °F - 17.1 °F 89% 30.11 in - Calm Calm - N/A   Unknown
6:56 AM 21.0 °F - 18.0 °F 88% 30.12 in - Calm Calm - N/A   Unknown
7:56 AM 26.1 °F - 21.9 °F 84% 30.10 in - Calm Calm - N/A   Unknown
8:56 AM 32.0 °F 28.7 °F 25.0 °F 75% 30.12 in - WSW 3.5 mph - N/A   Unknown
9:56 AM 34.0 °F 27.2 °F 25.0 °F 70% 30.12 in - WSW 8.1 mph - N/A   Unknown
10:56 AM 33.1 °F 25.5 °F 25.0 °F 72% 30.11 in - SW 9.2 mph - N/A   Unknown
11:56 AM 35.1 °F 27.4 °F 26.1 °F 70% 30.11 in - WSW 10.4 mph - N/A   Unknown
12:56 PM 34.0 °F 26.6 °F 26.1 °F 73% 30.09 in - WSW 9.2 mph - N/A   Unknown
1:56 PM 34.0 °F 26.0 °F 26.1 °F 73% 30.09 in - WSW 10.4 mph - N/A   Unknown
2:56 PM 35.1 °F 29.3 °F 26.1 °F 70% 30.09 in - WSW 6.9 mph - N/A   Unknown
3:56 PM 36.0 °F 31.1 °F 26.1 °F 67% 30.08 in - WSW 5.8 mph - N/A   Unknown
4:56 PM 33.1 °F 28.7 °F 25.0 °F 72% 30.09 in - SW 4.6 mph - N/A   Unknown
5:56 PM 30.0 °F - 23.0 °F 75% 30.10 in - Calm Calm - N/A   Unknown
6:56 PM 28.0 °F - 23.0 °F 81% 30.11 in - Calm Calm - N/A   Unknown
7:56 PM 26.1 °F 21.9 °F 21.0 °F 81% 30.11 in - NNW 3.5 mph - N/A   Unknown
8:56 PM 25.0 °F 20.7 °F 19.9 °F 81% 30.11 in - NNW 3.5 mph - N/A   Unknown
9:56 PM 23.0 °F 18.4 °F 19.0 °F 85% 30.10 in - NNW 3.5 mph - N/A   Unknown
10:56 PM 21.0 °F 14.6 °F 18.0 °F 88% 30.11 in - NNW 4.6 mph - N/A   Unknown
11:56 PM 19.9 °F 12.1 °F 16.0 °F 85% 30.09 in - NNW 5.8 mph - N/A   Unknown